Location: Hickory_CSC
(35.7330°N, 81.3330°W)
Time: 03:12:01
(UTC-05:00)

ISS - All Passes

Search period start: 04 December 2016 00:00
Search period end: 14 December 2016 00:00
Orbit: 401 x 410 km, 51.6° (Epoch: 04 December)

Date Brightness Start Highest point End Pass type
(mag) Time Alt. Az. Time Alt. Az. Time Alt. Az.
04 Dec - 00:12:25 10° NW 00:15:41 55° NE 00:18:55 10° ESE night (unlit)
04 Dec - 01:50:37 10° WSW 01:51:48 11° SW 01:52:58 10° SSW night (unlit)
04 Dec - 16:50:14 10° SW 16:53:30 90° S 16:56:49 10° NE daylight
04 Dec - 18:28:45 10° NW 18:30:25 13° NNW 18:32:05 10° N visible
04 Dec - 23:20:43 10° NNW 23:23:39 29° NE 23:26:35 10° E night (unlit)
05 Dec - 00:57:21 10° WNW 01:00:03 23° SW 01:02:45 10° S night (unlit)
05 Dec - 15:58:32 10° SSW 16:01:37 40° SE 16:04:43 10° ENE daylight
05 Dec - 17:35:43 10° W 17:38:14 20° NNW 17:40:46 10° NNE visible
05 Dec - 22:29:10 10° NNW 22:31:32 18° NNE 22:33:53 10° ENE night (unlit)
06 Dec - 00:05:01 10° WNW 00:08:13 49° SW 00:11:25 10° SSE night (unlit)
06 Dec - 15:07:23 10° S 15:09:48 19° SE 15:12:14 10° E daylight
06 Dec - 16:43:06 10° WSW 16:46:07 33° NW 16:49:10 10° NNE daylight
06 Dec - 21:37:57 10° N 21:39:19 12° NNE 21:40:40 10° NE night (unlit)
06 Dec - 23:13:00 10° NW 23:16:18 75° NE 23:19:35 10° SE night (unlit)
07 Dec - 15:50:50 10° SW 15:54:05 67° NW 15:57:22 10° NE daylight
07 Dec - 17:30:00 10° NW 17:31:07 11° NNW 17:32:14 10° N daylight
07 Dec - 22:21:10 10° NNW 22:24:16 36° NE 22:27:22 10° ESE night (unlit)
07 Dec - 23:58:15 10° W 00:00:34 18° SW 00:02:52 10° S night (unlit)
08 Dec - 14:58:56 10° SSW 15:02:08 55° SE 15:05:21 10° ENE daylight
08 Dec - 16:36:37 10° WNW 16:38:51 17° NNW 16:41:06 10° NNE daylight
08 Dec - 21:29:31 10° NNW 21:32:09 21° NNE 21:34:45 10° E night (unlit)
08 Dec - 23:05:38 10° WNW 23:08:43 36° SW 23:11:47 10° SSE night (unlit)
09 Dec - 14:07:30 10° S 14:10:15 25° SE 14:13:01 10° ENE daylight
09 Dec - 15:43:49 10° W 15:46:41 27° NW 15:49:33 10° NNE daylight
09 Dec - 20:38:06 10° N 20:39:55 14° NNE 20:41:44 10° ENE night (unlit)
09 Dec - 22:13:29 10° NW 22:16:47 82° SW 22:20:05 10° SE night (unlit)
10 Dec - 13:16:59 10° SSE 13:18:26 12° SE 13:19:54 10° E daylight
10 Dec - 14:51:23 10° WSW 14:54:34 50° NW 14:57:47 10° NE daylight
10 Dec - 21:21:33 10° NW 21:24:46 47° NE 21:27:57 10° ESE night (unlit)
10 Dec - 22:59:13 10° W 23:00:56 14° SW 23:02:40 10° SSW night (unlit)
11 Dec - 13:59:18 10° SW 14:02:32 75° SE 14:05:50 10° NE daylight
11 Dec - 15:37:30 10° WNW 15:39:23 14° NNW 15:41:17 10° N daylight
11 Dec - 20:29:48 10° NNW 20:32:38 26° NNE 20:35:28 10° E night (unlit)
11 Dec - 22:06:13 10° WNW 22:09:05 27° SW 22:11:56 10° SSE night (unlit)
12 Dec - 13:07:37 10° SSW 13:10:36 33° SE 13:13:36 10° ENE daylight
12 Dec - 14:44:29 10° W 14:47:08 22° NNW 14:49:48 10° NNE daylight
12 Dec - 19:38:14 10° NNW 19:40:24 16° NNE 19:42:34 10° ENE visible
12 Dec - 21:13:54 10° NW 21:17:09 60° SW 21:20:24 10° SE night (unlit)
13 Dec - 12:16:36 10° S 12:18:43 16° SE 12:20:51 10° E daylight
13 Dec - 13:51:52 10° WSW 13:54:57 39° NW 13:58:04 10° NE daylight
13 Dec - 18:47:08 10° N 18:48:04 11° NNE 18:49:01 10° NE visible
13 Dec - 20:21:51 10° NW 20:25:07 62° NE 20:28:24 10° ESE night (unlit)
13 Dec - 22:00:45 10° WSW 22:01:12 10° SW 22:01:39 10° SW night (unlit)
